Weather History for Arlington, WA

Change the Weather History Date:

Thursday, May 23, 2013

  Actual Average Record
Temperature  
Mean Temperature 50 °F -  
Max Temperature 59 °F 63 °F 80 °F (2001)
Min Temperature 41 °F 44 °F 39 °F (2007)
Degree Days  
Heating Degree Days 15    
Moisture  
Dew Point 43 °F    
Average Humidity 82    
Maximum Humidity 100    
Minimum Humidity 59    
Precipitation  
Precipitation 0.02 in - - ()
Sea Level Pressure  
Sea Level Pressure 30.00 in    
Wind  
Wind Speed 2 mph (SSE)    
Max Wind Speed 17 mph    
Max Gust Speed 23 mph    
Visibility 8 miles    
Events      
Averages and records for this station are not official NWS values.
T = Trace of Precipitation, MM = Missing Value Source: NWS Daily Summary

Daily Weather History Graph

Daily Weather History Graph

Search for Another Location

Airport:

Trip Planner

Search our weather history database for the weather conditions in past years. The results will help you decide how hot, cold, wet, or windy it might be!

Date:

Astronomy

May. 23, 2013 Rise Set
Actual Time 5:19 AM PDT 8:51 PM PDT
Civil Twilight 4:41 AM PDT 9:30 PM PDT
Nautical Twilight 3:49 AM PDT 10:22 PM PDT
Astronomical Twilight 2:40 AM PDT 11:33 PM PDT
Moon 7:25 PM PDT (5/23) 4:16 AM PDT (5/23)
Length of Visible Light 16h 49m
Length of Day
15h 31m
Waxing Gibbous, 97% of the Moon is Illuminated
May 23
Waxing Gibbous
May 24
Full
May 31
Last Quarter
Jun 8
New
Jun 16
First Quarter

Hourly Weather History & Observations

Time (PDT) Temp. Windchill Dew Point Humidity Pressure Visibility Wind Dir Wind Speed Gust Speed Precip Events Conditions
12:15 AM 42.8 °F - 41.0 °F 93% 29.95 in 0.2 mi Calm Calm - N/A   Unknown
12:35 AM 42.8 °F - 39.2 °F 87% 29.95 in 0.2 mi Calm Calm - N/A   Unknown
12:55 AM 42.8 °F - 39.2 °F 87% 29.95 in 0.5 mi Calm Calm - N/A   Unknown
1:15 AM 42.8 °F - 41.0 °F 93% 29.96 in 0.2 mi North - - N/A   Unknown
1:35 AM 42.8 °F - 42.8 °F 100% 29.96 in 0.5 mi Calm Calm - N/A   Unknown
1:55 AM 42.8 °F - 41.0 °F 93% 29.97 in 0.5 mi Calm Calm - N/A   Unknown
2:15 AM 42.8 °F - 42.8 °F 100% 29.97 in 1.0 mi Calm Calm - N/A   Unknown
2:35 AM 42.8 °F - 41.0 °F 93% 29.97 in 3.0 mi Calm Calm - N/A   Unknown
2:55 AM 41.0 °F - 39.2 °F 93% 29.97 in 0.5 mi Calm Calm - N/A   Unknown
3:15 AM 42.8 °F - 39.2 °F 87% 29.97 in 0.2 mi Calm Calm - N/A   Unknown
3:35 AM 42.8 °F - 39.2 °F 87% 29.97 in 0.2 mi Calm Calm - N/A   Unknown
3:55 AM 42.8 °F - 41.0 °F 93% 29.98 in 0.2 mi Calm Calm - N/A   Unknown
4:15 AM 42.8 °F - 41.0 °F 93% 29.98 in 9.0 mi Calm Calm - N/A   Unknown
4:35 AM 42.8 °F - 41.0 °F 93% 29.98 in 10.0 mi Calm Calm - N/A   Unknown
4:55 AM 42.8 °F - 42.8 °F 100% 29.98 in 10.0 mi Calm Calm - N/A   Unknown
5:15 AM 42.8 °F - 41.0 °F 93% 29.98 in 10.0 mi Calm Calm - N/A   Unknown
5:35 AM 44.6 °F - 41.0 °F 87% 29.98 in 10.0 mi Calm Calm - N/A   Unknown
5:55 AM 44.6 °F - 42.8 °F 93% 29.98 in 10.0 mi Calm Calm - N/A   Unknown
6:15 AM 44.6 °F - 42.8 °F 93% 29.98 in 10.0 mi Calm Calm - N/A   Unknown
6:35 AM 44.6 °F - 42.8 °F 93% 29.99 in 10.0 mi Calm Calm - N/A   Unknown
6:55 AM 44.6 °F - 42.8 °F 93% 30.00 in 10.0 mi Calm Calm - N/A   Unknown
7:15 AM 44.6 °F - 42.8 °F 93% 30.00 in 10.0 mi Calm Calm - N/A   Unknown
7:35 AM 46.4 °F - 42.8 °F 87% 30.01 in 10.0 mi Calm Calm - N/A   Unknown
7:55 AM 46.4 °F - 42.8 °F 87% 30.01 in 10.0 mi Calm Calm - N/A   Unknown
8:15 AM 46.4 °F - 44.6 °F 93% 30.02 in 10.0 mi Calm Calm - N/A   Unknown
8:35 AM 46.4 °F - 44.6 °F 93% 30.02 in 10.0 mi Calm Calm - N/A   Unknown
8:55 AM 46.4 °F 45.2 °F 42.8 °F 87% 30.02 in 10.0 mi SSE 3.5 mph - N/A   Unknown
9:15 AM 48.2 °F - 44.6 °F 87% 30.02 in 10.0 mi SSE 3.5 mph - N/A   Unknown
9:35 AM 48.2 °F - 44.6 °F 87% 30.02 in 10.0 mi Calm Calm - N/A   Unknown
9:55 AM 50.0 °F - 44.6 °F 82% 30.02 in 10.0 mi Calm Calm - N/A   Unknown
10:15 AM 51.8 °F - 44.6 °F 76% 30.01 in 10.0 mi Calm Calm - 0.02 in   Unknown
10:35 AM 51.8 °F - 44.6 °F 76% 30.00 in 9.0 mi South 4.6 mph - 0.02 in   Unknown
10:55 AM 51.8 °F - 46.4 °F 82% 30.00 in 10.0 mi South 4.6 mph - 0.02 in   Unknown
11:15 AM 53.6 °F - 46.4 °F 77% 30.00 in 10.0 mi South 5.8 mph - N/A   Unknown
11:35 AM 53.6 °F - 44.6 °F 72% 30.00 in 10.0 mi South 4.6 mph - N/A   Unknown
11:55 AM 53.6 °F - 44.6 °F 72% 30.00 in 10.0 mi SE 6.9 mph - N/A   Unknown
12:15 PM 55.4 °F - 44.6 °F 67% 30.00 in 10.0 mi SSE 8.1 mph - N/A   Unknown
12:35 PM 55.4 °F - 44.6 °F 67% 29.99 in 10.0 mi SSE 5.8 mph - N/A   Unknown
12:55 PM 55.4 °F - 44.6 °F 67% 29.98 in 10.0 mi Calm Calm - N/A   Unknown
1:15 PM 57.2 °F - 44.6 °F 63% 29.98 in 10.0 mi SSE 5.8 mph - N/A   Unknown
1:35 PM 59.0 °F - 44.6 °F 59% 29.98 in 10.0 mi South 6.9 mph - N/A   Unknown
1:55 PM 57.2 °F - 44.6 °F 63% 29.98 in 10.0 mi South 10.4 mph - N/A   Unknown
2:15 PM 57.2 °F - 44.6 °F 63% 29.98 in 10.0 mi South 10.4 mph 18.4 mph N/A   Unknown
2:35 PM 59.0 °F - 46.4 °F 63% 29.99 in 10.0 mi SSE 10.4 mph - N/A   Unknown
2:55 PM 57.2 °F - 44.6 °F 63% 30.00 in 10.0 mi SW 9.2 mph - N/A   Unknown
3:15 PM 55.4 °F - 42.8 °F 63% 30.01 in 10.0 mi SSW 13.8 mph 23.0 mph N/A   Unknown
3:35 PM 51.8 °F - 44.6 °F 76% 30.01 in 10.0 mi SSW 11.5 mph - N/A   Unknown
3:55 PM 53.6 °F - 44.6 °F 72% 30.02 in 10.0 mi SSW 12.7 mph - N/A   Unknown
4:15 PM 53.6 °F - 44.6 °F 72% 30.02 in 10.0 mi South 16.1 mph 20.7 mph N/A   Unknown
4:35 PM 53.6 °F - 42.8 °F 67% 30.03 in 10.0 mi South 17.3 mph 21.9 mph N/A   Unknown
4:55 PM 51.8 °F - 42.8 °F 71% 30.03 in 10.0 mi South 12.7 mph - N/A   Unknown
5:15 PM 50.0 °F - 46.4 °F 87% 30.03 in 10.0 mi SSE 9.2 mph - N/A   Unknown
5:35 PM 51.8 °F - 44.6 °F 76% 30.03 in 10.0 mi SSE 11.5 mph - N/A   Unknown
5:55 PM 51.8 °F - 46.4 °F 82% 30.03 in 10.0 mi SSE 6.9 mph - N/A   Unknown
6:15 PM 51.8 °F - 44.6 °F 76% 30.02 in 10.0 mi South 12.7 mph - N/A   Unknown
6:35 PM 53.6 °F - 44.6 °F 72% 30.02 in 10.0 mi ESE 8.1 mph - N/A   Unknown
6:55 PM 53.6 °F - 44.6 °F 72% 30.02 in 10.0 mi ESE 6.9 mph - N/A   Unknown
7:15 PM 53.6 °F - 44.6 °F 72% 30.01 in 10.0 mi ESE 6.9 mph - N/A   Unknown
7:35 PM 51.8 °F - 44.6 °F 76% 30.01 in 10.0 mi East 4.6 mph - N/A   Unknown
7:55 PM 51.8 °F - 44.6 °F 76% 30.01 in 10.0 mi East 3.5 mph - N/A   Unknown
8:15 PM 51.8 °F - 42.8 °F 71% 30.01 in 10.0 mi Calm Calm - N/A   Unknown
8:35 PM 50.0 °F - 42.8 °F 76% 30.01 in 10.0 mi Calm Calm - N/A   Unknown
8:55 PM 48.2 °F - 42.8 °F 82% 30.01 in 10.0 mi NNE 4.6 mph - N/A   Unknown
9:15 PM 46.4 °F - 42.8 °F 87% 30.01 in 10.0 mi Calm Calm - N/A   Unknown
9:35 PM 46.4 °F - 42.8 °F 87% 30.01 in 10.0 mi Calm Calm - N/A   Unknown
9:55 PM 44.6 °F 42.2 °F 39.2 °F 81% 30.01 in 10.0 mi NNW 4.6 mph - N/A   Unknown
10:15 PM 46.4 °F 44.3 °F 42.8 °F 87% 30.01 in 10.0 mi North 4.6 mph - N/A   Unknown
10:35 PM 46.4 °F 44.3 °F 42.8 °F 87% 30.01 in 10.0 mi North 4.6 mph - N/A   Unknown
10:55 PM 46.4 °F - 42.8 °F 87% 30.01 in 10.0 mi North - - N/A   Unknown
11:15 PM 44.6 °F - 42.8 °F 93% 30.01 in 10.0 mi Calm Calm - N/A   Unknown
11:35 PM 44.6 °F - 42.8 °F 93% 30.01 in 10.0 mi Calm Calm - N/A   Unknown
11:55 PM 42.8 °F - 41.0 °F 93% 30.00 in 10.0 mi Calm Calm - N/A   Unknown